Home   Weather   41°17'N, 81°25'W   Past weeks
Flag for USA

Past Weather in 41°17'N, 81°25'W, USA — Yesterday and Last 2 Weeks

Now
70 °F

Passing clouds.


Feels Like: 77 °F
Forecast: 65 / 50 °F
Wind: 6 mph from Southeast

Location: Akron Fulton International Airport

Current Time: Oct 21, 2019 at 9:39:10 pm

Latest Report: Oct 21, 2019 at 8:54 pm


Visibility: 10 mi

Pressure: 29.75 "Hg

Humidity: 49%

Dew Point: 50 °F

Location of 41°17'N, 81°25'WLocation

Past Weather in 41°17'N, 81°25'W — Graph

°F

41°17'N, 81°25'W Temperature Yesterday

Maximum temperature yesterday: 73 °F (at 3:54 pm)
Minimum temperature yesterday: 44 °F (at 2:54 am)
Average temperature yesterday: 58 °F

High & Low Weather Summary for the Past Weeks

 TemperatureHumidityPressure
High79 °F (Oct 11, 2:54 pm)93% (Oct 8, 4:54 am)30.29 "Hg (Oct 8, 4:54 am)
Low36 °F (Oct 19, 3:54 am)24% (Oct 13, 3:54 pm)29.62 "Hg (Oct 16, 5:54 am)
Average55 °F65%30.00 "Hg
* Reported Oct 6 7:54 pm — Oct 21 7:54 pm, 41°17'N, 81°25'W. Weather by CustomWeather, © 2019

Note: Actual official high and low records may vary slightly from our data, if they occured in-between our weather recording intervals... More about our weather records

Advertising

41°17'N, 81°25'W Weather History for the Previous 24 Hours

Scroll right to see more
 ConditionsComfort  
Time TempWeatherWind HumidityBarometerVisibility
7:54 pm
Mon, Oct 21
70 °FClear.6 mph49%29.77 "Hg10 mi
6:54 pm71 °FPassing clouds.5 mph47%29.78 "Hg10 mi
5:54 pm73 °FOvercast.7 mph43%29.78 "Hg10 mi
4:54 pm73 °FOvercast.8 mph43%29.81 "Hg10 mi
3:54 pm73 °FPassing clouds.10 mph43%29.80 "Hg10 mi
2:54 pm73 °FSunny.15 mph40%29.81 "Hg10 mi
1:54 pm71 °FSunny.12 mph38%29.85 "Hg10 mi
12:54 pm71 °FSunny.9 mph42%29.90 "Hg10 mi
11:54 am69 °FSunny.9 mph47%29.93 "Hg10 mi
10:54 am64 °FSunny.7 mph63%29.94 "Hg10 mi
9:54 am60 °FSunny.7 mph69%29.97 "Hg10 mi
8:54 am56 °FSunny.3 mph77%29.98 "Hg10 mi
7:54 am54 °FSunny.3 mph80%29.98 "Hg10 mi
6:54 am51 °FClear.No wind83%29.99 "Hg10 mi
5:54 am54 °FClear.No wind77%29.97 "Hg10 mi
4:54 am55 °FPassing clouds.No wind80%29.96 "Hg10 mi
3:54 am55 °FOvercast.No wind80%29.96 "Hg10 mi
2:54 am56 °FOvercast.No wind84%29.97 "Hg10 mi
1:54 am55 °FOvercast.No wind87%29.98 "Hg9 mi
12:54 am53 °FPassing clouds.No wind86%29.97 "Hg10 mi
11:54 pm
Sun, Oct 20
53 °FOvercast.No wind83%29.98 "Hg10 mi
10:54 pm56 °FOvercast.No wind81%29.98 "Hg10 mi
9:54 pm57 °FPassing clouds.No wind74%29.96 "Hg10 mi
Weather by CustomWeather, © 2019

See weather overview